Weather in Komissarovo

Russia / Kemerovo Oblast     55°18′18″N   86°02′18″E
temp.,
°C
wind,
m/s
gust,
m/s
humid.,
%
clouds,
%
prec.,
mm/h
press.,
hPa
HPBL,
m
14 april, wed
wed1401:00+1wsw61298100 0.6 1030508
04:00+1w51098100 0.6 1030514
07:00+1wsw51091100 0.6 1030497
10:00+1wsw61299100 0.0 1030544
13:00+1sw71699100 0.8 1027734
16:00+1wsw81798100 3.6 1024718
19:00+2wsw71594100 3.8 1023695
22:00+1wsw61397100 0.0 1024453
15 april, thu
thu1501:00+1w51198100 0.0 1024326
04:00+1w3799100 0.0 1025197
07:00+1wsw2499100 0.0 102698
10:00+1sw23100100 0.0 1026109
13:00+2ssw25100100 0.0 1026171
16:00+2ssw36100100 0.0 1024212
19:00+2ssw3899100 0.0 1023232
22:00+2ssw4999100 0.0 1023248
16 april, fri
fri1601:00+2sw4999100 0.0 1021234
04:00+2ssw399974 0.0 1019240
07:00+2ssw51397100 0.0 1018278
10:00+5ssw6139644 0.0 1016430
13:00+10sw7138377 0.0 1014829
16:00+11sw8138148 0.0 10121020
19:00+11sw7148081 0.1 1010627
22:00+8w4991100 0.4 1011215
17 april, sat
sat1701:00+1nne71191100 0.6 1014589
04:000nne61092100 1.4 1016782
07:00−1nne6984100 1.6 1017682
10:00−2ne7973100 0.0 1018757
13:00−2nne71087100 2.5 1012832
16:000ne675499 0.0 10161026
19:000ne576242 0.0 10151003
22:00−3ne48715 0.0 1015529
18 april, sun
sun1801:00−3nne247714 0.0 1014374
04:00−3wnw238064 0.0 1012308
07:00−3w247568 0.0 1011352
10:00−1wsw3456100 0.0 1010747
13:00+2wsw4647100 0.0 10091341
16:00+4wsw61055100 0.0 10081843
19:00−1wnw234999 0.0 10191139
22:00−1w4860100 0.0 1013498